CZ-6A DEB

Satellite information

Favourite Embed

Satellite Type and Status

DEBRISIN ORBIT

Key statistics

Satellite CZ-6A DEB at a glance.

Uptime

969

Days in orbit

Revolutions

≈ 14.4

Per day

Orbit

SSO

Sun Synchronous Orbit

Inclination

98.8

Latest

Satellite identification and parameters

Extended collection of information and parameters for CZ-6A DEB.

Object identification

Identified? True

Debris? True

Object name: CZ-6A DEB

International designator: 2022-151UK

Object number (NORAD): 54994

Object ID (CCSDS): 54994

Country: PEOPLES REPUBLIC OF CHINA (PRC)

Current information (Y/N): Y

RCS size: SMALL

Orbital parameters

Period: 100.32 minutes

Inclination: 98.8489 deg

SMA: 7151.828 km

Apoapsis: 780.016 km

Periapsis: 767.37 km

RAAN: 222.0032 deg

Eccentricy: 0.0008841

Argument of periapsis: 49.8151 deg

Mean anomaly: 310.3806 deg

Mean motion: 14.35413848 rev/day

Mean motion (dot): 0.00004234 rev/day2

B* drag term: 0.0014891 1/REarth

Two-line elements (TLE)

Creation date: July 5, 2025, 11:06 p.m.

Reference frame: TEME

Reference center: EARTH

Epoch: July 5, 2025, 1:48 p.m. UTC

TLE line 0: 0 CZ-6A DEB

TLE line 1: 1 54994U 22151UK 25186.57565482 .00004234 00000-0 14891-2 0 9994

TLE line 2: 2 54994 98.8489 222.0032 0008841 49.8151 310.3806 14.35413848136551

Live tracking on map

Real-time ground track for satellite CZ-6A DEB.

In-orbit conjunctions

A list of the most updated potential collisions computed for object CZ-6A DEB.

Target Orbit TCA Probability of collision Miss distance Type
SL-8 R/B LEO 2025-03-16 11:21:57 0.0007037831 72.0 (m) ROCKET BODY
COSMOS 1850 LEO 2024-10-04 06:42:30 0.0006168417 106.0 (m) PAYLOAD
FENGYUN 1C DEB SSO 2024-08-01 20:02:53 0.0001373279 208.0 (m) DEBRIS
COSMOS 2112 LEO 2024-06-28 23:13:24 0.00014841 258.0 (m) PAYLOAD

Associated space launch

Chinese satellite reported for atmospheric/ocean/environmental/spatial parameter research purposes, details TBD.

CZ-6A DEB was lifted into orbit during the mission ‘Long March 6A | Yunhai 3’, on board a Long March 6A space rocket.

The launch took place on Nov. 11, 2022, 10:52 p.m. from Launch Complex 9A.

For more information about the launch, click the button.

Launch to space Long March 6A | Yunhai 3
Long March 6A | Yunhai 3

Agency: N/A

Status: Launch Successful

Launch date: Nov. 11, 2022, 10:52 p.m. UTC

Rocket: Long March 6A

Launch pad: Launch Complex 9A

Location: Taiyuan Satellite Launch Center, People's Republic of China

...

Latest news about this satellite

There are no fresh news available about this satellite. Check back as we update our databases every day.


Newsletter sign-up

Weekly statistics, charts and insights to help you stay on top of the space industry.